Regional Weather Roundup
Issued by NWS

Current Version | Previous Version | Text Only | Print | Product List | Glossary On
Versions: 1 2 3 4 5 6 7 8 9 10 11 12 13 14 15 16 17 18 19 20 21 22 23 24 25 26 27 28 29 30 31 32 33 34 35 36 37 38 39 40 41 42 43 44 45 46 47 48 49 50
000
ASUS45 KBOI 302010
RWRID

IDAHO REGIONAL WEATHER ROUNDUP
NATIONAL WEATHER SERVICE BOISE ID
200 PM MDT TUE JUN 30 2015

NOTE: "FAIR" INDICATES FEW OR NO CLOUDS BELOW 12000 FEET
WITH NO SIGNIFICANT WEATHER AND/OR OBSTRUCTIONS TO VISIBILITY

IDZ012-014-302100-
SOUTHWEST IDAHO


CITY           SKY/WX    TMP DP  RH WIND       PRES   REMARKS
BOISE          SUNNY     96  55  25 NW8G16    29.98F HX  94
CALDWELL       SUNNY     97  57  26 NW7       29.98F HX  95
MOUNTAIN HOME  MOSUNNY   96  53  23 NW9       29.98F HX  94
$$

IDZ016-017-302100-
SOUTHCENTRAL IDAHO


CITY           SKY/WX    TMP DP  RH WIND       PRES   REMARKS
BURLEY         MOSUNNY   92  52  25 NW7       30.06F
JEROME         SUNNY     90  55  30 S6        30.08F
TWIN FALLS     SUNNY     94  57  28 NW10      30.06F HX  92
$$

IDZ019>023-302100-
SOUTHEAST IDAHO


CITY           SKY/WX    TMP DP  RH WIND       PRES   REMARKS
IDAHO FALLS    MOSUNNY   84  64  50 W7        30.12F
POCATELLO      SUNNY     91  52  26 NW6       30.10F
REXBURG        MOSUNNY   88  50  27 VRB6      30.12F
$$

IDZ006-010-011-018-031-032-302100-
CENTRAL IDAHO MOUNTAINS


CITY           SKY/WX    TMP DP  RH WIND       PRES   REMARKS
MCCALL         SUNNY     86  46  24 VRB3      30.14F
HAILEY         MOSUNNY   84  57  39 E10       30.15F
STANLEY          N/A     85  45  24 NW7       30.25F
SALMON         SUNNY     86  52  30 N3        30.03F
CHALLIS        MOSUNNY   88  49  25 VRB6      30.10F
$$

IDZ002-004-006-007-026-302100-
NORTHERN IDAHO


CITY           SKY/WX    TMP DP  RH WIND       PRES   REMARKS
LEWISTON       SUNNY     96  48  19 NW9       29.97F HX  92
LOWELL           N/A     98  57  25 S8        29.93F HX  97
COEUR D`ALENE  SUNNY     90  54  29 W10       30.02S
MULLAN PASS    SUNNY     73  45  36 NW10G21   30.25S
$$


USA.gov is the U.S. government's official web portal to all federal, state and local government web resources and services.